Weather History for PATK - December, 2013

Change the Weather History Date:

Sunday, December 8, 2013

  Actual Average Record
Temperature  
Mean Temperature 32 °F -  
Max Temperature 33 °F 19 °F 43 °F (1960)
Min Temperature 30 °F 5 °F -35 °F (1975)
Degree Days  
Heating Degree Days 34    
Moisture  
Dew Point 31 °F    
Average Humidity 96    
Maximum Humidity 100    
Minimum Humidity 87    
Precipitation  
Precipitation 0.00 in - - ()
Sea Level Pressure  
Sea Level Pressure 30.42 in    
Wind  
Wind Speed 0 mph (South)    
Max Wind Speed 5 mph    
Max Gust Speed -    
Visibility 3 miles    
Events Fog    
Averages and records for this station are not official NWS values.
T = Trace of Precipitation, MM = Missing Value Source: NWS Daily Summary

Daily Weather History Graph

Daily Weather History Graph

Search for Another Location

Airport or City:

Trip Planner

Search our weather history database for the weather conditions in past years. The results will help you decide how hot, cold, wet, or windy it might be!

Date:

Astronomy

Dec. 08, 2013 Rise Set
Actual Time 10:12 AM AKST 3:31 PM AKST
Civil Twilight 9:07 AM AKST 4:37 PM AKST
Nautical Twilight 8:05 AM AKST 5:38 PM AKST
Astronomical Twilight 7:10 AM AKST 6:34 PM AKST
Moon 12:56 PM AKST (12/8) No Moon Set
Length of Visible Light 7h 29m
Length of Day
5h 19m
Waxing Crescent, 41% of the Moon is Illuminated
Dec 8
Waxing Crescent
Dec 9
First Quarter
Dec 17
Full
Dec 25
Last Quarter
Jan 1
New

Hourly Weather History & Observations

Time (AKST) Temp. Windchill Dew Point Humidity Pressure Visibility Wind Dir Wind Speed Gust Speed Precip Events Conditions
12:33 AM 33.8 °F - 30.2 °F 87% 30.45 in 1.5 mi Calm Calm - 0.01 in   Overcast
12:45 AM 33.8 °F - 32.0 °F 93% 30.45 in 2.0 mi Calm Calm - 0.01 in   Overcast
12:53 AM 33.1 °F - 32.0 °F 96% 30.48 in 2.5 mi Calm Calm - 0.01 in   Overcast
1:43 AM 33.8 °F - 30.2 °F 87% 30.45 in 1.2 mi Calm Calm - N/A   Overcast
1:53 AM 32.0 °F - 30.9 °F 96% 30.47 in 1.5 mi Calm Calm - 0.01 in   Overcast
2:00 AM 32.0 °F - 32.0 °F 100% 30.45 in 2.0 mi Calm Calm - N/A   Overcast
2:21 AM 33.8 °F - 30.2 °F 87% 30.45 in 1.5 mi Calm Calm - N/A   Overcast
2:36 AM 32.0 °F - 32.0 °F 100% 30.45 in 2.5 mi Calm Calm - N/A   Overcast
2:53 AM 32.0 °F - 32.0 °F 100% 30.47 in 2.5 mi Calm Calm - N/A   Overcast
3:29 AM 33.8 °F - 30.2 °F 87% 30.44 in 3.0 mi Calm Calm - N/A   Overcast
4:02 AM 33.8 °F - 32.0 °F 93% 30.44 in 3.0 mi Calm Calm - N/A   Overcast
4:53 AM 32.0 °F - 32.0 °F 100% 30.46 in 3.0 mi Calm Calm - N/A   Overcast
5:15 AM 33.8 °F - 32.0 °F 93% 30.44 in 5.0 mi Calm Calm - N/A   Overcast
5:22 AM 33.8 °F - 32.0 °F 93% 30.44 in 6.0 mi Calm Calm - N/A   Overcast
5:53 AM 33.1 °F - 32.0 °F 96% 30.46 in 10.0 mi Calm Calm - N/A   Overcast
6:02 AM 33.8 °F - 32.0 °F 93% 30.44 in 10.0 mi Calm Calm - N/A   Overcast
6:53 AM 33.1 °F - 32.0 °F 96% 30.48 in 5.0 mi Calm Calm - N/A   Overcast
7:17 AM 33.8 °F - 32.0 °F 93% 30.45 in 5.0 mi Calm Calm - N/A   Overcast
7:26 AM 33.8 °F - 32.0 °F 93% 30.45 in 5.0 mi Calm Calm - N/A   Overcast
7:53 AM 33.1 °F - 32.0 °F 96% 30.47 in 4.0 mi Calm Calm - N/A   Overcast
8:53 AM 33.1 °F - 32.0 °F 96% 30.47 in 4.0 mi Calm Calm - N/A   Overcast
9:36 AM 33.8 °F - 32.0 °F 93% 30.45 in 1.8 mi Calm Calm - N/A Fog Fog
9:43 AM 33.8 °F - 32.0 °F 93% 30.45 in 0.5 mi Calm Calm - N/A Fog Fog
9:53 AM 33.1 °F - 32.0 °F 96% 30.47 in 0.5 mi Calm Calm - N/A Fog Fog
10:53 AM 33.1 °F - 32.0 °F 96% 30.47 in 0.2 mi Calm Calm - N/A Fog Fog
11:53 AM 33.1 °F - 32.0 °F 96% 30.46 in 0.2 mi Calm Calm - N/A Fog Fog
12:53 PM 33.1 °F - 32.0 °F 96% 30.45 in 0.2 mi Calm Calm - N/A Fog Fog
1:53 PM 33.1 °F - 32.0 °F 96% 30.44 in 0.2 mi Calm Calm - N/A Fog Fog
2:53 PM 32.0 °F - 32.0 °F 100% 30.42 in 0.2 mi Calm Calm - N/A Fog Fog
3:53 PM 32.0 °F - 30.9 °F 96% 30.41 in 0.2 mi Calm Calm - N/A Fog Fog
4:53 PM 30.9 °F - 30.9 °F 100% 30.40 in 0.5 mi Calm Calm - N/A Fog Fog
5:53 PM 30.9 °F - 30.9 °F 100% 30.40 in 0.5 mi Calm Calm - N/A Fog Fog
6:22 PM 30.2 °F - 30.2 °F 100% 30.37 in 0.8 mi Calm Calm - N/A Fog Fog
6:49 PM 30.2 °F - 30.2 °F 100% 30.38 in 1.0 mi Calm Calm - N/A Fog Fog
6:51 PM 30.2 °F - 30.2 °F 100% 30.37 in 0.8 mi Calm Calm - N/A Fog Fog
6:53 PM 30.9 °F 27.5 °F 30.0 °F 96% 30.40 in 0.8 mi SSE 3.5 mph - N/A Fog Fog
7:03 PM 30.2 °F - 30.2 °F 100% 30.37 in 1.5 mi Calm Calm - N/A Fog Fog
7:53 PM 30.9 °F - 30.0 °F 96% 30.40 in 1.2 mi Calm Calm - N/A Fog Fog
8:17 PM 30.2 °F - 30.2 °F 100% 30.38 in 2.5 mi Calm Calm - N/A Fog Fog
8:26 PM 30.2 °F 26.7 °F 30.2 °F 100% 30.38 in 8.0 mi South 3.5 mph - N/A Fog Fog
8:33 PM 30.2 °F 26.7 °F 30.2 °F 100% 30.38 in 10.0 mi South 3.5 mph - N/A Fog Fog
8:53 PM 30.9 °F 27.5 °F 30.0 °F 96% 30.40 in 10.0 mi South 3.5 mph - N/A Fog Fog
9:42 PM 30.2 °F 26.7 °F 30.2 °F 100% 30.38 in 4.0 mi SSW 3.5 mph - N/A Fog Fog
9:53 PM 30.9 °F 27.5 °F 30.0 °F 96% 30.40 in 5.0 mi South 3.5 mph - N/A Fog Fog
10:12 PM 30.2 °F - 30.2 °F 100% 30.38 in 10.0 mi Calm Calm - N/A Fog Fog
10:20 PM 30.2 °F - 30.2 °F 100% 30.37 in 9.0 mi Calm Calm - N/A Fog Fog
10:45 PM 30.2 °F - 30.2 °F 100% 30.37 in 2.5 mi Calm Calm - N/A Fog Fog
10:53 PM 30.9 °F - 30.0 °F 96% 30.39 in 1.8 mi Calm Calm - N/A Fog Fog
11:06 PM 32.0 °F - 30.2 °F 93% 30.37 in 1.8 mi Calm Calm - N/A Fog Fog
11:13 PM 32.0 °F - 30.2 °F 93% 30.36 in 2.0 mi Calm Calm - N/A Fog Fog
11:31 PM 32.0 °F 28.7 °F 30.2 °F 93% 30.36 in 4.0 mi NE 3.5 mph - N/A Fog Fog
11:53 PM 30.0 °F 25.2 °F 28.9 °F 96% 30.38 in 9.0 mi NNE 4.6 mph - N/A Fog Fog